Location: Gu�tanj
(46.5431°N, 14.9692°E)
Time: 16:55:34
(UTC+00:00)

BREEZE-M DEB (TANK) - Pass Details

Date: 03 March 2021
Orbit: 351 x 16374 km, 49.4° (Epoch: 15 April)

Event Time Altitude Azimuth Distance (km) Brightness Sun altitude
Rises 17:15:19 0° 221° (SW) 6,050 8.4 -5.3°
Reaches altitude 10° 17:21:08 10° 214° (SW) 3,459 6.9 -6.3°
Maximum altitude 17:26:55 29° 155° (SSE) 1,164 3.8 -7.3°
Enters shadow 17:29:34 10° 91° (E) 1,539 3.9 -7.8°
